Year,Month,Day,Hour,Minute,Value (Times are PST for temperature in C)
2009,06,27,00,00,14.00
2009,06,27,00,01,14.00
2009,06,27,00,06,13.80
2009,06,27,00,07,13.80
2009,06,27,00,08,13.70
2009,06,27,00,09,13.70
2009,06,27,00,10,13.70
2009,06,27,00,11,13.70
2009,06,27,00,12,13.70
2009,06,27,00,13,13.70
2009,06,27,00,14,13.70
2009,06,27,00,15,13.60
2009,06,27,00,16,13.60
2009,06,27,00,17,13.50
2009,06,27,00,18,13.50
2009,06,27,00,19,13.50
2009,06,27,00,20,13.40
2009,06,27,00,21,13.40
2009,06,27,00,22,13.40
2009,06,27,00,23,13.30
2009,06,27,00,24,13.30
2009,06,27,00,25,13.30
2009,06,27,00,26,13.30
2009,06,27,00,27,13.30
2009,06,27,00,28,13.30
2009,06,27,00,29,13.20
2009,06,27,00,30,13.20
2009,06,27,00,31,13.20
2009,06,27,00,32,13.20
2009,06,27,00,33,13.10
2009,06,27,00,34,13.10
2009,06,27,00,35,13.10
2009,06,27,00,36,13.10
2009,06,27,00,37,13.00
2009,06,27,00,38,13.00
2009,06,27,00,39,13.00
2009,06,27,00,40,13.00
2009,06,27,00,41,13.00
2009,06,27,00,42,12.90
2009,06,27,00,43,12.90
2009,06,27,00,44,12.90
2009,06,27,00,45,12.90
2009,06,27,00,46,12.80
2009,06,27,00,47,12.80
2009,06,27,00,48,12.80
2009,06,27,00,49,12.80
2009,06,27,00,50,12.80
2009,06,27,00,51,12.80
2009,06,27,00,52,12.80
2009,06,27,00,53,12.80
2009,06,27,00,54,12.80
2009,06,27,00,55,12.80
2009,06,27,00,56,12.70
2009,06,27,00,57,12.70
2009,06,27,00,58,12.70
2009,06,27,00,59,12.70
2009,06,27,01,00,12.70
2009,06,27,01,01,12.60
2009,06,27,01,02,12.60
2009,06,27,01,03,12.60
2009,06,27,01,04,12.60
2009,06,27,01,05,12.60
2009,06,27,01,06,12.60
2009,06,27,01,07,12.60
2009,06,27,01,08,12.50
2009,06,27,01,09,12.50
2009,06,27,01,10,12.50
2009,06,27,01,11,12.50
2009,06,27,01,12,12.50
2009,06,27,01,13,12.40
2009,06,27,01,14,12.40
2009,06,27,01,15,12.40
2009,06,27,01,16,12.40
2009,06,27,01,17,12.40
2009,06,27,01,18,12.30
2009,06,27,01,19,12.30
2009,06,27,01,20,12.30
2009,06,27,01,21,12.30
2009,06,27,01,22,12.30
2009,06,27,01,23,12.30
2009,06,27,01,24,12.30
2009,06,27,01,25,12.30
2009,06,27,01,26,12.30
2009,06,27,01,27,12.20
2009,06,27,01,28,12.20
2009,06,27,01,29,12.20
2009,06,27,01,30,12.20
2009,06,27,01,31,12.20
2009,06,27,01,32,12.10
2009,06,27,01,33,12.10
2009,06,27,01,34,12.10
2009,06,27,01,35,12.10
2009,06,27,01,36,12.10
2009,06,27,01,37,12.00
2009,06,27,01,38,12.00
2009,06,27,01,39,12.00
2009,06,27,01,40,12.00
2009,06,27,01,41,11.90
2009,06,27,01,42,11.90
2009,06,27,01,43,11.80
2009,06,27,01,44,11.80
2009,06,27,01,45,11.80
2009,06,27,01,46,11.80
2009,06,27,01,47,11.80
2009,06,27,01,48,11.80
2009,06,27,01,49,11.70
2009,06,27,01,50,11.70
2009,06,27,01,51,11.70
2009,06,27,01,52,11.70
2009,06,27,01,53,11.60
2009,06,27,01,54,11.60
2009,06,27,01,55,11.60
2009,06,27,01,56,11.60
2009,06,27,01,57,11.60
2009,06,27,01,58,11.60
2009,06,27,01,59,11.60
2009,06,27,02,00,11.50
2009,06,27,02,01,11.40
2009,06,27,02,02,11.40
2009,06,27,02,03,11.40
2009,06,27,02,04,11.40
2009,06,27,02,05,11.40
2009,06,27,02,06,11.40
2009,06,27,02,07,11.30
2009,06,27,02,08,11.30
2009,06,27,02,09,11.30
2009,06,27,02,10,11.30
2009,06,27,02,11,11.20
2009,06,27,02,12,11.20
2009,06,27,02,13,11.20
2009,06,27,02,14,11.20
2009,06,27,02,15,11.20
2009,06,27,02,16,11.10
2009,06,27,02,17,11.10
2009,06,27,02,18,11.10
2009,06,27,02,19,11.10
2009,06,27,02,20,11.10
2009,06,27,02,21,11.10
2009,06,27,02,22,11.10
2009,06,27,02,23,11.10
2009,06,27,02,24,11.10
2009,06,27,02,25,11.10
2009,06,27,02,26,11.10
2009,06,27,02,27,11.10
2009,06,27,02,28,11.00
2009,06,27,02,29,10.90
2009,06,27,02,30,10.90
2009,06,27,02,31,10.90
2009,06,27,02,32,10.90
2009,06,27,02,33,10.90
2009,06,27,02,34,10.90
2009,06,27,02,35,10.90
2009,06,27,02,36,10.90
2009,06,27,02,37,10.90
2009,06,27,02,38,10.90
2009,06,27,02,39,10.90
2009,06,27,02,40,10.90
2009,06,27,02,41,10.90
2009,06,27,02,42,10.90
2009,06,27,02,43,10.90
2009,06,27,02,44,10.90
2009,06,27,02,45,10.90
2009,06,27,02,46,10.90
2009,06,27,02,47,10.90
2009,06,27,02,48,10.90
2009,06,27,02,49,10.90
2009,06,27,02,50,10.90
2009,06,27,02,51,10.90
2009,06,27,02,52,10.90
2009,06,27,02,53,10.80
2009,06,27,02,54,10.80
2009,06,27,02,55,10.80
2009,06,27,02,56,10.80
2009,06,27,02,57,10.80
2009,06,27,02,58,10.80
2009,06,27,02,59,10.80
2009,06,27,03,00,10.80
2009,06,27,03,01,10.70
2009,06,27,03,02,10.70
2009,06,27,03,03,10.70
2009,06,27,03,04,10.70
2009,06,27,03,05,10.70
2009,06,27,03,06,10.70
2009,06,27,03,07,10.70
2009,06,27,03,08,10.70
2009,06,27,03,09,10.70
2009,06,27,03,10,10.70
2009,06,27,03,11,10.70
2009,06,27,03,12,10.70
2009,06,27,03,13,10.70
2009,06,27,03,14,10.70
2009,06,27,03,15,10.70
2009,06,27,03,16,10.70
2009,06,27,03,17,10.70
2009,06,27,03,18,10.70
2009,06,27,03,19,10.60
2009,06,27,03,20,10.60
2009,06,27,03,21,10.60
2009,06,27,03,22,10.60
2009,06,27,03,23,10.60
2009,06,27,03,24,10.60
2009,06,27,03,25,10.70
2009,06,27,03,26,10.70
2009,06,27,03,27,10.70
2009,06,27,03,28,10.70
2009,06,27,03,29,10.60
2009,06,27,03,30,10.60
2009,06,27,03,31,10.60
2009,06,27,03,32,10.60
2009,06,27,03,33,10.60
2009,06,27,03,34,10.60
2009,06,27,03,35,10.60
2009,06,27,03,36,10.60
2009,06,27,03,37,10.50
2009,06,27,03,38,10.40
2009,06,27,03,39,10.40
2009,06,27,03,40,10.40
2009,06,27,03,41,10.40
2009,06,27,03,42,10.40
2009,06,27,03,43,10.40
2009,06,27,03,44,10.30
2009,06,27,03,45,10.30
2009,06,27,03,46,10.30
2009,06,27,03,47,10.20
2009,06,27,03,48,10.20
2009,06,27,03,49,10.20
2009,06,27,03,50,10.20
2009,06,27,03,51,10.20
2009,06,27,03,52,10.20
2009,06,27,03,53,10.10
2009,06,27,03,54,10.10
2009,06,27,03,55,10.10
2009,06,27,03,56,10.10
2009,06,27,03,57,10.10
2009,06,27,03,58,10.10
2009,06,27,03,59,10.10
2009,06,27,04,00,10.10
2009,06,27,04,01,10.00
2009,06,27,04,02,9.90
2009,06,27,04,03,9.90
2009,06,27,04,04,9.90
2009,06,27,04,05,9.90
2009,06,27,04,06,9.90
2009,06,27,04,07,9.90
2009,06,27,04,08,9.90
2009,06,27,04,09,9.90
2009,06,27,04,10,9.90
2009,06,27,04,11,9.90
2009,06,27,04,12,9.90
2009,06,27,04,13,9.80
2009,06,27,04,14,9.80
2009,06,27,04,15,9.80
2009,06,27,04,16,9.80
2009,06,27,04,17,9.80
2009,06,27,04,18,9.80
2009,06,27,04,19,9.80
2009,06,27,04,20,9.80
2009,06,27,04,21,9.70
2009,06,27,04,22,9.70
2009,06,27,04,23,9.70
2009,06,27,04,24,9.70
2009,06,27,04,25,9.70
2009,06,27,04,26,9.70
2009,06,27,04,27,9.70
2009,06,27,04,28,9.70
2009,06,27,04,29,9.70
2009,06,27,04,30,9.70
2009,06,27,04,31,9.70
2009,06,27,04,32,9.70
2009,06,27,04,33,9.70
2009,06,27,04,34,9.60
2009,06,27,04,35,9.60
2009,06,27,04,36,9.60
2009,06,27,04,37,9.60
2009,06,27,04,38,9.60
2009,06,27,04,39,9.60
2009,06,27,04,40,9.50
2009,06,27,04,41,9.50
2009,06,27,04,42,9.50
2009,06,27,04,43,9.40
2009,06,27,04,44,9.40
2009,06,27,04,45,9.40
2009,06,27,04,46,9.40
2009,06,27,04,47,9.40
2009,06,27,04,48,9.30
2009,06,27,04,49,9.30
2009,06,27,04,50,9.30
2009,06,27,04,51,9.30
2009,06,27,04,52,9.30
2009,06,27,04,53,9.30
2009,06,27,04,54,9.20
2009,06,27,04,55,9.20
2009,06,27,04,56,9.20
2009,06,27,04,57,9.20
2009,06,27,04,58,9.20
2009,06,27,04,59,9.20
2009,06,27,05,00,9.20
2009,06,27,05,01,9.20
2009,06,27,05,02,9.20
2009,06,27,05,03,9.20
2009,06,27,05,04,9.20
2009,06,27,05,05,9.20
2009,06,27,05,06,9.10
2009,06,27,05,07,9.10
2009,06,27,05,08,9.10
2009,06,27,05,09,9.10
2009,06,27,05,10,9.10
2009,06,27,05,11,9.10
2009,06,27,05,12,9.10
2009,06,27,05,13,9.00
2009,06,27,05,14,9.00
2009,06,27,05,15,9.00
2009,06,27,05,16,9.00
2009,06,27,05,17,9.00
2009,06,27,05,18,9.00
2009,06,27,05,19,9.00
2009,06,27,05,20,9.00
2009,06,27,05,21,9.00
2009,06,27,05,22,9.00
2009,06,27,05,23,9.00
2009,06,27,05,24,9.10
2009,06,27,05,25,9.10
2009,06,27,05,26,9.10
2009,06,27,05,27,9.10
2009,06,27,05,28,9.10
2009,06,27,05,29,9.10
2009,06,27,05,30,9.10
2009,06,27,05,31,9.10
2009,06,27,05,32,9.10
2009,06,27,05,33,9.10
2009,06,27,05,34,9.10
2009,06,27,05,35,9.10
2009,06,27,05,36,9.10
2009,06,27,05,37,9.10
2009,06,27,05,38,9.10
2009,06,27,05,39,9.10
2009,06,27,05,40,9.10
2009,06,27,05,41,9.10
2009,06,27,05,42,9.10
2009,06,27,05,43,9.10
2009,06,27,05,44,9.10
2009,06,27,05,45,9.10
2009,06,27,05,46,9.10
2009,06,27,05,47,9.10
2009,06,27,05,48,9.10
2009,06,27,05,49,9.10
2009,06,27,05,50,9.10
2009,06,27,05,51,9.10
2009,06,27,05,52,9.10
2009,06,27,05,53,9.10
2009,06,27,05,54,9.20
2009,06,27,05,55,9.20
2009,06,27,05,56,9.20
2009,06,27,05,57,9.20
2009,06,27,05,58,9.20
2009,06,27,05,59,9.20
2009,06,27,06,00,9.20
2009,06,27,06,01,9.20
2009,06,27,06,02,9.20
2009,06,27,06,03,9.20
2009,06,27,06,04,9.20
2009,06,27,06,05,9.20
2009,06,27,06,06,9.20
2009,06,27,06,07,9.20
2009,06,27,06,08,9.20
2009,06,27,06,09,9.20
2009,06,27,06,10,9.20
2009,06,27,06,11,9.20
2009,06,27,06,12,9.20
2009,06,27,06,13,9.20
2009,06,27,06,14,9.20
2009,06,27,06,15,9.30
2009,06,27,06,16,9.30
2009,06,27,06,17,9.30
2009,06,27,06,18,9.30
2009,06,27,06,19,9.30
2009,06,27,06,20,9.30
2009,06,27,06,21,9.40
2009,06,27,06,22,9.40
2009,06,27,06,23,9.40
2009,06,27,06,24,9.40
2009,06,27,06,25,9.40
2009,06,27,06,26,9.50
2009,06,27,06,27,9.50
2009,06,27,06,28,9.50
2009,06,27,06,29,9.50
2009,06,27,06,30,9.50
2009,06,27,06,31,9.60
2009,06,27,06,32,9.60
2009,06,27,06,33,9.60
2009,06,27,06,34,9.60
2009,06,27,06,35,9.60
2009,06,27,06,36,9.60
2009,06,27,06,37,9.60
2009,06,27,06,38,9.70
2009,06,27,06,39,9.70
2009,06,27,06,40,9.70
2009,06,27,06,41,9.70
2009,06,27,06,42,9.70
2009,06,27,06,43,9.70
2009,06,27,06,44,9.70
2009,06,27,06,45,9.80
2009,06,27,06,46,9.80
2009,06,27,06,47,9.80
2009,06,27,06,48,9.90
2009,06,27,06,49,9.90
2009,06,27,06,50,9.90
2009,06,27,06,51,9.90
2009,06,27,06,52,9.90
2009,06,27,06,53,9.90
2009,06,27,06,54,10.00
2009,06,27,06,55,10.10
2009,06,27,06,56,10.10
2009,06,27,06,57,10.10
2009,06,27,06,58,10.10
2009,06,27,06,59,10.10
2009,06,27,07,00,10.20
2009,06,27,07,01,10.20
2009,06,27,07,02,10.30
2009,06,27,07,03,10.30
2009,06,27,07,04,10.30
2009,06,27,07,05,10.30
2009,06,27,07,06,10.40
2009,06,27,07,07,10.40
2009,06,27,07,08,10.40
2009,06,27,07,09,10.40
2009,06,27,07,10,10.40
2009,06,27,07,11,10.40
2009,06,27,07,12,10.40
2009,06,27,07,13,10.40
2009,06,27,07,14,10.40
2009,06,27,07,15,10.60
2009,06,27,07,16,10.60
2009,06,27,07,17,10.60
2009,06,27,07,18,10.60
2009,06,27,07,19,10.60
2009,06,27,07,20,10.60
2009,06,27,07,21,10.70
2009,06,27,07,22,10.70
2009,06,27,07,23,10.80
2009,06,27,07,24,10.80
2009,06,27,07,25,10.80
2009,06,27,07,26,10.90
2009,06,27,07,27,10.90
2009,06,27,07,28,10.90
2009,06,27,07,29,11.00
2009,06,27,07,30,11.10
2009,06,27,07,31,11.10
2009,06,27,07,32,11.10
2009,06,27,07,33,11.20
2009,06,27,07,34,11.20
2009,06,27,07,35,11.30
2009,06,27,07,36,11.40
2009,06,27,07,37,11.40
2009,06,27,07,38,11.50
2009,06,27,07,39,11.60
2009,06,27,07,40,11.60
2009,06,27,07,41,11.70
2009,06,27,07,42,11.70
2009,06,27,07,43,11.80
2009,06,27,07,44,11.90
2009,06,27,07,45,12.00
2009,06,27,07,46,12.10
2009,06,27,07,47,12.20
2009,06,27,07,48,12.20
2009,06,27,07,49,12.30
2009,06,27,07,50,12.40
2009,06,27,07,51,12.50
2009,06,27,07,52,12.60
2009,06,27,07,53,12.60
2009,06,27,07,54,12.70
2009,06,27,07,55,12.80
2009,06,27,07,56,12.90
2009,06,27,07,57,12.90
2009,06,27,07,58,13.00
2009,06,27,07,59,13.10
2009,06,27,08,00,13.10
2009,06,27,08,01,13.20
2009,06,27,08,02,13.20
2009,06,27,08,03,13.30
2009,06,27,08,04,13.30
2009,06,27,08,05,13.30
2009,06,27,08,06,13.40
2009,06,27,08,07,13.50
2009,06,27,08,08,13.50
2009,06,27,08,09,13.60
2009,06,27,08,10,13.70
2009,06,27,08,11,13.70
2009,06,27,08,12,13.80
2009,06,27,08,13,13.80
2009,06,27,08,14,13.90
2009,06,27,08,15,14.00
2009,06,27,08,16,14.10
2009,06,27,08,17,14.20
2009,06,27,08,18,14.20
2009,06,27,08,19,14.30
2009,06,27,08,20,14.30
2009,06,27,08,21,14.40
2009,06,27,08,22,14.50
2009,06,27,08,23,14.50
2009,06,27,08,24,14.60
2009,06,27,08,25,14.60
2009,06,27,08,26,14.60
2009,06,27,08,27,14.60
2009,06,27,08,28,14.60
2009,06,27,08,29,14.60
2009,06,27,08,30,14.60
2009,06,27,08,31,14.60
2009,06,27,08,32,14.70
2009,06,27,08,33,14.70
2009,06,27,08,34,14.70
2009,06,27,08,35,14.70
2009,06,27,08,36,14.70
2009,06,27,08,37,14.80
2009,06,27,08,38,14.80
2009,06,27,08,39,14.80
2009,06,27,08,40,14.80
2009,06,27,08,41,14.80
2009,06,27,08,42,14.80
2009,06,27,08,43,14.80
2009,06,27,08,44,14.90
2009,06,27,08,45,14.90
2009,06,27,08,46,15.00
2009,06,27,08,47,15.00
2009,06,27,08,48,15.10
2009,06,27,08,49,15.10
2009,06,27,08,50,15.20
2009,06,27,08,51,15.30
2009,06,27,08,52,15.30
2009,06,27,08,53,15.40
2009,06,27,08,54,15.40
2009,06,27,08,55,15.50
2009,06,27,08,56,15.50
2009,06,27,08,57,15.50
2009,06,27,08,58,15.60
2009,06,27,08,59,15.60
2009,06,27,09,00,15.60
2009,06,27,09,01,15.60
2009,06,27,09,02,15.70
2009,06,27,09,03,15.70
2009,06,27,09,04,15.70
2009,06,27,09,05,15.70
2009,06,27,09,06,15.70
2009,06,27,09,07,15.80
2009,06,27,09,08,15.80
2009,06,27,09,09,15.80
2009,06,27,09,10,15.80
2009,06,27,09,11,15.80
2009,06,27,09,12,15.80
2009,06,27,09,13,15.80
2009,06,27,09,14,15.90
2009,06,27,09,15,15.90
2009,06,27,09,16,15.90
2009,06,27,09,17,15.90
2009,06,27,09,18,15.90
2009,06,27,09,19,16.00
2009,06,27,09,20,16.10
2009,06,27,09,21,16.10
2009,06,27,09,22,16.10
2009,06,27,09,23,16.10
2009,06,27,09,24,16.10
2009,06,27,09,25,16.10
2009,06,27,09,26,16.10
2009,06,27,09,27,16.10
2009,06,27,09,28,16.10
2009,06,27,09,29,16.10
2009,06,27,09,30,16.20
2009,06,27,09,31,16.20
2009,06,27,09,32,16.20
2009,06,27,09,33,16.10
2009,06,27,09,34,16.10
2009,06,27,09,35,16.10
2009,06,27,09,36,16.10
2009,06,27,09,37,16.10
2009,06,27,09,38,16.10
2009,06,27,09,39,16.10
2009,06,27,09,40,16.10
2009,06,27,09,41,16.10
2009,06,27,09,42,16.10
2009,06,27,09,43,16.10
2009,06,27,09,44,16.10
2009,06,27,09,45,16.10
2009,06,27,09,46,16.10
2009,06,27,09,47,16.10
2009,06,27,09,48,16.10
2009,06,27,09,49,16.20
2009,06,27,09,50,16.20
2009,06,27,09,51,16.20
2009,06,27,09,52,16.30
2009,06,27,09,53,16.30
2009,06,27,09,54,16.30
2009,06,27,09,55,16.30
2009,06,27,09,56,16.30
2009,06,27,09,57,16.30
2009,06,27,09,58,16.30
2009,06,27,09,59,16.30
2009,06,27,10,00,16.30
2009,06,27,10,01,16.30
2009,06,27,10,02,16.30
2009,06,27,10,03,16.30
2009,06,27,10,04,16.20
2009,06,27,10,05,16.10
2009,06,27,10,06,16.10
2009,06,27,10,07,16.10
2009,06,27,10,08,16.10
2009,06,27,10,09,16.10
2009,06,27,10,10,16.10
2009,06,27,10,11,16.10
2009,06,27,10,12,16.10
2009,06,27,10,13,16.20
2009,06,27,10,14,16.20
2009,06,27,10,15,16.30
2009,06,27,10,16,16.30
2009,06,27,10,17,16.40
2009,06,27,10,18,16.40
2009,06,27,10,19,16.40
2009,06,27,10,20,16.50
2009,06,27,10,21,16.60
2009,06,27,10,22,16.60
2009,06,27,10,23,16.60
2009,06,27,10,24,16.60
2009,06,27,10,25,16.60
2009,06,27,10,26,16.70
2009,06,27,10,27,16.70
2009,06,27,10,28,16.80
2009,06,27,10,29,16.80
2009,06,27,10,30,16.80
2009,06,27,10,31,16.90
2009,06,27,10,32,16.90
2009,06,27,10,33,17.00
2009,06,27,10,34,17.00
2009,06,27,10,35,16.90
2009,06,27,10,36,16.80
2009,06,27,10,37,16.70
2009,06,27,10,38,16.70
2009,06,27,10,39,16.70
2009,06,27,10,40,16.70
2009,06,27,10,41,16.70
2009,06,27,10,42,16.80
2009,06,27,10,43,16.80
2009,06,27,10,44,16.80
2009,06,27,10,45,16.90
2009,06,27,10,46,16.90
2009,06,27,10,47,17.00
2009,06,27,10,48,17.00
2009,06,27,10,49,17.10
2009,06,27,10,50,17.10
2009,06,27,10,51,17.20
2009,06,27,10,52,17.30
2009,06,27,10,53,17.30
2009,06,27,10,54,17.30
2009,06,27,10,55,17.30
2009,06,27,10,56,17.30
2009,06,27,10,57,17.40
2009,06,27,10,58,17.40
2009,06,27,10,59,17.40
2009,06,27,11,00,17.30
2009,06,27,11,01,17.30
2009,06,27,11,02,17.30
2009,06,27,11,03,17.30
2009,06,27,11,04,17.30
2009,06,27,11,05,17.30
2009,06,27,11,06,17.30
2009,06,27,11,07,17.30
2009,06,27,11,08,17.40
2009,06,27,11,09,17.40
2009,06,27,11,10,17.40
2009,06,27,11,11,17.40
2009,06,27,11,12,17.40
2009,06,27,11,13,17.50
2009,06,27,11,14,17.50
2009,06,27,11,15,17.60
2009,06,27,11,16,17.60
2009,06,27,11,17,17.60
2009,06,27,11,18,17.60
2009,06,27,11,19,17.60
2009,06,27,11,20,17.50
2009,06,27,11,21,17.60
2009,06,27,11,22,17.60
2009,06,27,11,23,17.60
2009,06,27,11,24,17.60
2009,06,27,11,25,17.60
2009,06,27,11,26,17.50
2009,06,27,11,27,17.50
2009,06,27,11,28,17.50
2009,06,27,11,29,17.50
2009,06,27,11,30,17.60
2009,06,27,11,31,17.60
2009,06,27,11,32,17.60
2009,06,27,11,33,17.60
2009,06,27,11,34,17.50
2009,06,27,11,35,17.40
2009,06,27,11,36,17.30
2009,06,27,11,37,17.30
2009,06,27,11,38,17.30
2009,06,27,11,39,17.30
2009,06,27,11,40,17.30
2009,06,27,11,41,17.30
2009,06,27,11,42,17.30
2009,06,27,11,43,17.30
2009,06,27,11,44,17.30
2009,06,27,11,45,17.30
2009,06,27,11,46,17.30
2009,06,27,11,47,17.30
2009,06,27,11,48,17.30
2009,06,27,11,49,17.30
2009,06,27,11,50,17.30
2009,06,27,11,51,17.30
2009,06,27,11,52,17.30
2009,06,27,11,53,17.30
2009,06,27,11,54,17.40
2009,06,27,11,55,17.50
2009,06,27,11,56,17.50
2009,06,27,11,57,17.60
2009,06,27,11,58,17.60
2009,06,27,11,59,17.70
2009,06,27,12,00,17.70
2009,06,27,12,01,17.80
2009,06,27,12,02,17.80
2009,06,27,12,03,17.80
2009,06,27,12,04,17.80
2009,06,27,12,05,17.90
2009,06,27,12,06,17.90
2009,06,27,12,07,18.00
2009,06,27,12,08,18.10
2009,06,27,12,09,18.10
2009,06,27,12,10,18.00
2009,06,27,12,11,17.90
2009,06,27,12,12,17.90
2009,06,27,12,13,17.80
2009,06,27,12,14,17.80
2009,06,27,12,15,17.80
2009,06,27,12,16,17.80
2009,06,27,12,17,17.80
2009,06,27,12,18,17.70
2009,06,27,12,19,17.60
2009,06,27,12,20,17.60
2009,06,27,12,21,17.60
2009,06,27,12,22,17.50
2009,06,27,12,23,17.60
2009,06,27,12,24,17.70
2009,06,27,12,25,17.70
2009,06,27,12,26,17.80
2009,06,27,12,27,17.80
2009,06,27,12,28,17.80
2009,06,27,12,29,17.90
2009,06,27,12,30,18.00
2009,06,27,12,31,18.00
2009,06,27,12,32,17.90
2009,06,27,12,33,17.90
2009,06,27,12,34,17.90
2009,06,27,12,35,17.90
2009,06,27,12,36,17.90
2009,06,27,12,37,17.90
2009,06,27,12,38,17.90
2009,06,27,12,39,17.90
2009,06,27,12,40,17.90
2009,06,27,12,41,17.90
2009,06,27,12,42,17.90
2009,06,27,12,43,17.90
2009,06,27,12,44,18.00
2009,06,27,12,45,18.10
2009,06,27,12,46,18.10
2009,06,27,12,47,18.10
2009,06,27,12,48,18.10
2009,06,27,12,49,18.10
2009,06,27,12,50,18.10
2009,06,27,12,51,18.10
2009,06,27,12,52,18.00
2009,06,27,12,53,17.90
2009,06,27,12,54,17.80
2009,06,27,12,55,17.70
2009,06,27,12,56,17.70
2009,06,27,12,57,17.70
2009,06,27,12,58,17.60
2009,06,27,12,59,17.60
2009,06,27,13,00,17.60
2009,06,27,13,01,17.60
2009,06,27,13,02,17.60
2009,06,27,13,03,17.70
2009,06,27,13,04,17.70
2009,06,27,13,05,17.70
2009,06,27,13,06,17.70
2009,06,27,13,07,17.70
2009,06,27,13,08,17.70
2009,06,27,13,09,17.70
2009,06,27,13,10,17.70
2009,06,27,13,11,17.70
2009,06,27,13,12,17.80
2009,06,27,13,13,17.80
2009,06,27,13,14,17.80
2009,06,27,13,15,17.80
2009,06,27,13,16,17.80
2009,06,27,13,17,17.80
2009,06,27,13,18,17.80
2009,06,27,13,19,17.80
2009,06,27,13,20,17.80
2009,06,27,13,21,17.80
2009,06,27,13,22,17.70
2009,06,27,13,23,17.70
2009,06,27,13,24,17.70
2009,06,27,13,25,17.70
2009,06,27,13,26,17.70
2009,06,27,13,27,17.70
2009,06,27,13,28,17.60
2009,06,27,13,29,17.60
2009,06,27,13,30,17.60
2009,06,27,13,31,17.60
2009,06,27,13,32,17.50
2009,06,27,13,33,17.40
2009,06,27,13,34,17.30
2009,06,27,13,35,17.30
2009,06,27,13,36,17.30
2009,06,27,13,37,17.20
2009,06,27,13,38,17.10
2009,06,27,13,39,17.00
2009,06,27,13,40,17.00
2009,06,27,13,41,17.00
2009,06,27,13,42,17.00
2009,06,27,13,43,16.90
2009,06,27,13,44,16.90
2009,06,27,13,45,16.90
2009,06,27,13,46,16.80
2009,06,27,13,47,16.90
2009,06,27,13,48,16.90
2009,06,27,13,49,16.90
2009,06,27,13,50,16.90
2009,06,27,13,51,16.90
2009,06,27,13,52,16.90
2009,06,27,13,53,16.90
2009,06,27,13,54,16.90
2009,06,27,13,55,16.90
2009,06,27,13,56,16.90
2009,06,27,13,57,16.90
2009,06,27,13,58,16.80
2009,06,27,13,59,16.80
2009,06,27,14,00,16.80
2009,06,27,14,01,16.80
2009,06,27,14,02,16.80
2009,06,27,14,03,16.80
2009,06,27,14,04,16.70
2009,06,27,14,05,16.70
2009,06,27,14,06,16.60
2009,06,27,14,07,16.60
2009,06,27,14,08,16.50
2009,06,27,14,09,16.40
2009,06,27,14,10,16.40
2009,06,27,14,11,16.30
2009,06,27,14,12,16.20
2009,06,27,14,13,16.10
2009,06,27,14,14,15.90
2009,06,27,14,15,15.80
2009,06,27,14,16,15.70
2009,06,27,14,17,15.60
2009,06,27,14,18,15.50
2009,06,27,14,19,15.30
2009,06,27,14,20,15.30
2009,06,27,14,21,15.20
2009,06,27,14,22,15.20
2009,06,27,14,23,15.10
2009,06,27,14,24,15.10
2009,06,27,14,25,15.00
2009,06,27,14,26,15.00
2009,06,27,14,27,15.00
2009,06,27,14,28,14.90
2009,06,27,14,29,14.90
2009,06,27,14,30,14.80
2009,06,27,14,31,14.80
2009,06,27,14,32,14.80
2009,06,27,14,33,14.80
2009,06,27,14,34,14.80
2009,06,27,14,35,14.70
2009,06,27,14,36,14.60
2009,06,27,14,37,14.50
2009,06,27,14,38,14.40
2009,06,27,14,39,14.30
2009,06,27,14,40,14.20
2009,06,27,14,41,14.20
2009,06,27,14,42,14.20
2009,06,27,14,43,14.20
2009,06,27,14,44,14.20
2009,06,27,14,45,14.20
2009,06,27,14,46,14.20
2009,06,27,14,47,14.20
2009,06,27,14,48,14.20
2009,06,27,14,49,14.20
2009,06,27,14,50,14.20
2009,06,27,14,51,14.20
2009,06,27,14,52,14.20
2009,06,27,14,53,14.20
2009,06,27,14,54,14.10
2009,06,27,14,55,14.20
2009,06,27,14,56,14.20
2009,06,27,14,57,14.10
2009,06,27,14,58,14.00
2009,06,27,14,59,13.90
2009,06,27,15,00,13.80
2009,06,27,15,01,13.70
2009,06,27,15,02,13.60
2009,06,27,15,03,13.50
2009,06,27,15,04,13.30
2009,06,27,15,05,13.30
2009,06,27,15,06,13.20
2009,06,27,15,07,13.20
2009,06,27,15,08,13.20
2009,06,27,15,09,13.20
2009,06,27,15,10,13.20
2009,06,27,15,11,13.20
2009,06,27,15,12,13.10
2009,06,27,15,13,13.10
2009,06,27,15,14,13.10
2009,06,27,15,15,13.10
2009,06,27,15,16,13.10
2009,06,27,15,17,13.10
2009,06,27,15,18,13.20
2009,06,27,15,19,13.20
2009,06,27,15,20,13.10
2009,06,27,15,21,13.10
2009,06,27,15,22,13.00
2009,06,27,15,23,12.90
2009,06,27,15,24,12.90
2009,06,27,15,25,12.80
2009,06,27,15,26,12.80
2009,06,27,15,27,12.90
2009,06,27,15,28,13.00
2009,06,27,15,29,13.00
2009,06,27,15,30,13.10
2009,06,27,15,31,13.10
2009,06,27,15,32,13.10
2009,06,27,15,33,13.10
2009,06,27,15,34,13.10
2009,06,27,15,35,13.20
2009,06,27,15,36,13.20
2009,06,27,15,37,13.20
2009,06,27,15,38,13.20
2009,06,27,15,39,13.30
2009,06,27,15,40,13.30
2009,06,27,15,41,13.30
2009,06,27,15,42,13.30
2009,06,27,15,43,13.30
2009,06,27,15,44,13.30
2009,06,27,15,45,13.30
2009,06,27,15,46,13.40
2009,06,27,15,47,13.30
2009,06,27,15,48,13.30
2009,06,27,15,49,13.30
2009,06,27,15,50,13.30
2009,06,27,15,51,13.30
2009,06,27,15,52,13.30
2009,06,27,15,53,13.30
2009,06,27,15,54,13.30
2009,06,27,15,55,13.30
2009,06,27,15,56,13.30
2009,06,27,15,57,13.30
2009,06,27,15,58,13.30
2009,06,27,15,59,13.30
2009,06,27,16,00,13.30
2009,06,27,16,01,13.30
2009,06,27,16,02,13.30
2009,06,27,16,03,13.30
2009,06,27,16,04,13.20
2009,06,27,16,05,13.20
2009,06,27,16,06,13.20
2009,06,27,16,07,13.20
2009,06,27,16,08,13.20
2009,06,27,16,09,13.20
2009,06,27,16,10,13.10
2009,06,27,16,11,13.10
2009,06,27,16,12,13.20
2009,06,27,16,13,13.20
2009,06,27,16,14,13.20
2009,06,27,16,15,13.20
2009,06,27,16,16,13.10
2009,06,27,16,17,13.10
2009,06,27,16,18,13.10
2009,06,27,16,19,13.10
2009,06,27,16,20,13.10
2009,06,27,16,21,13.10
2009,06,27,16,22,13.10
2009,06,27,16,23,13.20
2009,06,27,16,24,13.20
2009,06,27,16,25,13.20
2009,06,27,16,26,13.20
2009,06,27,16,27,13.20
2009,06,27,16,28,13.20
2009,06,27,16,29,13.20
2009,06,27,16,30,13.30
2009,06,27,16,31,13.30
2009,06,27,16,32,13.30
2009,06,27,16,33,13.30
2009,06,27,16,34,13.30
2009,06,27,16,35,13.30
2009,06,27,16,36,13.30
2009,06,27,16,37,13.30
2009,06,27,16,38,13.30
2009,06,27,16,39,13.20
2009,06,27,16,40,13.20
2009,06,27,16,41,13.20
2009,06,27,16,42,13.10
2009,06,27,16,43,13.10
2009,06,27,16,44,13.10
2009,06,27,16,45,13.10
2009,06,27,16,46,13.10
2009,06,27,16,47,13.10
2009,06,27,16,48,13.00
2009,06,27,16,49,13.10
2009,06,27,16,50,13.10
2009,06,27,16,51,13.10
2009,06,27,16,52,13.10
2009,06,27,16,53,13.10
2009,06,27,16,54,13.10
2009,06,27,16,55,13.10
2009,06,27,16,56,13.10
2009,06,27,16,57,13.10
2009,06,27,16,58,13.10
2009,06,27,16,59,13.10
2009,06,27,17,00,13.10
2009,06,27,17,01,13.10
2009,06,27,17,02,13.10
2009,06,27,17,03,13.10
2009,06,27,17,04,13.10
2009,06,27,17,05,13.10
2009,06,27,17,06,13.10
2009,06,27,17,07,13.10
2009,06,27,17,08,13.10
2009,06,27,17,09,13.00
2009,06,27,17,10,13.00
2009,06,27,17,11,13.00
2009,06,27,17,12,13.00
2009,06,27,17,13,13.00
2009,06,27,17,14,12.90
2009,06,27,17,15,13.00
2009,06,27,17,16,13.00
2009,06,27,17,17,13.00
2009,06,27,17,18,13.00
2009,06,27,17,19,13.00
2009,06,27,17,20,12.90
2009,06,27,17,21,12.90
2009,06,27,17,22,12.90
2009,06,27,17,23,13.00
2009,06,27,17,24,13.00
2009,06,27,17,25,13.00
2009,06,27,17,26,13.10
2009,06,27,17,27,13.10
2009,06,27,17,28,13.10
2009,06,27,17,29,13.10
2009,06,27,17,30,13.10